Location: Newark
(44.1667°N, 8.2500°E)
Time: 00:40:28
(UTC+00:00)

Envisat - Pass Details

Date: 20 November 2019
Orbit: 764 x 766 km, 98.1° (Epoch: 08 December)

Event Time Altitude Azimuth Distance (km) Brightness Sun altitude
Rises 18:17:48 0° 195° (SSW) 3,219 6.5 -25.1°
Reaches altitude 10° 18:20:24 10° 207° (SSW) 2,297 5.8 -25.6°
Maximum altitude 18:24:43 28° 266° (W) 1,410 5.0 -26.4°
Drops below altitude 10° 18:29:04 10° 324° (NW) 2,311 5.9 -27.2°
Sets 18:31:42 0° 336° (NNW) 3,242 6.5 -27.6°
